Lexington Weather

Lexington, Massachusetts, USA

44°F
5/12/2021 4:28am 
  • Lexington Conditions: Clear
  • Temperature: 44.4°F / 6.9°CColder 0.6°F than last hour.
  • Dew Point: 33.1°FIncreased 0.7°Fsince last hour.
  • Relative Humidity: 64%Increased 3.0% since last hour.
  • Wind: Wind from WSW WSW Calm, 10-min avg: 1 mph, gust: 3 mph
  • Barometer: 29.92 in Steady
  • Visibility: 10 miles
  • Rain Today: 0.00 in
  •   

Regional Weather Roundup
for Boston / Norton, MA

        
000
ASUS41 KBOX 071205
RWRBOX

REGIONAL WEATHER ROUNDUP
NATIONAL WEATHER SERVICE BOSTON/NORTON MA
800 AM EDT FRI MAY 07 2021

NOTE:  "FAIR" INDICATES FEW OR NO CLOUDS BELOW 12,000 FEET WITH NO 
SIGNIFICANT WEATHER AND/OR OBSTRUCTIONS TO VISIBILITY.

MAZALL-071300-
EASTERN MASSACHUSETTS
  
CITY           SKY/WX    TMP DP  RH WIND       PRES   REMARKS
BOSTON         MOSUNNY   55  33  43 NE12      29.98S                  
6HR MIN TEMP:  49; 6HR MAX TEMP:  55;                                

BEVERLY        SUNNY     53  37  54 VRB6      29.98R                  
LAWRENCE       SUNNY     49  35  58 NE9       30.00S                  
BEDFORD        SUNNY     53  34  48 N7        29.97S                  
BLUE HILL        N/A     51  33  50 NE9       29.95S                  
NORWOOD        SUNNY     54  36  50 NE6       29.97S                  
MARSHFIELD     SUNNY     54  43  66 VRB5      29.98R                  
PLYMOUTH       SUNNY     53  42  66 E8        29.96R                  
TAUNTON        SUNNY     52  40  63 VRB3      29.96S                  
NEW BEDFORD    SUNNY     53  42  66 E9        29.95R                  
$$

MAZALL-071300-
CAPE COD AND THE ISLANDS
  
CITY           SKY/WX    TMP DP  RH WIND       PRES   REMARKS
FALMOUTH       SUNNY     52  45  76 E7        29.95S                  
HYANNIS        SUNNY     54  41  61 E10G20    29.95R                  
CHATHAM        SUNNY     52  39  61 SE8       29.98R                  
PROVINCETOWN   SUNNY     54  41  61 E9        29.98R                  
NANTUCKET      SUNNY     53  44  71 E14       29.95F                  
MARTHAS VNYRD  SUNNY     54  44  69 E13       29.94S                  
$$
 
MAZALL-071300-
CENTRAL AND WESTERN MASSACHUSETTS
  
CITY           SKY/WX    TMP DP  RH WIND       PRES   REMARKS
WORCESTER      SUNNY     51  26  37 NE10      29.96S                  
6HR MIN TEMP:  47; 6HR MAX TEMP:  51;                                

FITCHBURG      SUNNY     51  29  42 NE7G17    29.98S                  
ORANGE         SUNNY     47  35  63 CALM      29.98F                  
SPRINGFIELD    MOSUNNY   49  37  62 NE5       29.96S                  
WESTFIELD      SUNNY     50  35  56 N8        29.97S                  
NORTH ADAMS    SUNNY     41  34  76 CALM      29.98S                  
PITTSFIELD     SUNNY     48  31  51 VRB3      29.95S                  
$$
 
RIZALL-071300-
RHODE ISLAND
  
CITY           SKY/WX    TMP DP  RH WIND       PRES   REMARKS
PROVIDENCE     MOSUNNY   54  35  48 NE9       29.96R                  
6HR MIN TEMP:  45; 6HR MAX TEMP:  54;                                

NEWPORT        SUNNY     53  38  56 E9        29.94R                  
BLOCK ISLAND   SUNNY     50  41  71 E9        29.94S                  
SMITHFIELD       N/A     52  35  52 NE10      29.96S                  
WESTERLY       SUNNY     52  31  44 NE7       29.94R                  
$$
 
CTZALL-071300-
CONNECTICUT
  
CITY           SKY/WX    TMP DP  RH WIND       PRES   REMARKS
BRADLEY INTL   MOSUNNY   51  34  52 N10       29.96S                  
6HR MIN TEMP:  41; 6HR MAX TEMP:  51;                                

HARTFORD       SUNNY     52  35  52 N6        29.96S                  
BRIDGEPORT     SUNNY     56  30  37 NE12      29.93R                  
DANBURY        SUNNY     52  32  46 NE8       29.95S                  
GROTON         SUNNY     55  32  41 NE10      29.93R                  
NEW HAVEN      SUNNY     54  34  46 N12       29.93S                  
CHESTER        FAIR      54  28  37 NE7       29.94R                  
MERIDEN        SUNNY     52  31  44 NE5       29.95S                  
WILLIMANTIC    SUNNY     53  32  44 NE8       29.95S                  
OXFORD         SUNNY     51  30  44 NE14      29.94S                  
$$

MEZ002-015-021-024-NHZ003-005-008-011-012-014-VTZ005-008-071300-
NORTHERN NEW ENGLAND
  
CITY           SKY/WX    TMP DP  RH WIND       PRES   REMARKS
PORTLAND ME    MOSUNNY   47  35  63 N3        30.02S                  
6HR MIN TEMP:  35; 6HR MAX TEMP:  47;                                

BANGOR ME      MOSUNNY   46  29  51 NW10      30.00R                  
CONCORD NH     SUNNY     45  35  68 CALM      30.00S                  
MANCHESTER NH  MOSUNNY   51  30  44 E9        29.98S                  
NASHUA NH      SUNNY     50  33  52 NE3       30.00S                  
PORTSMOUTH NH  MOSUNNY   51  31  45 E8        30.01S                  
JAFFREY NH     SUNNY     47  33  58 N3        29.97F                  
KEENE NH       SUNNY     43  35  73 N3        29.99F                  
BURLINGTON VT  MOSUNNY   44  33  65 CALM      29.99S                  
MT. WASHINGTON NOT AVBL                                               
$$

NYZ052-076-071300-
EASTERN NEW YORK
  
CITY           SKY/WX    TMP DP  RH WIND       PRES   REMARKS
ALBANY         MOSUNNY   43  35  73 NW6       29.98F                  
6HR MIN TEMP:  32; 6HR MAX TEMP:  43;                                

NEW YORK CITY  MOSUNNY   54  32  43 NE9       29.93R                  
6HR MIN TEMP:  51; 6HR MAX TEMP:  55;                                

$$
 
ANZALL-071300-
MARINE OBSERVATIONS
  
STATION/POSITION TIME  TEMP    WIND        PRES    VSBY  WAVE
                       AIR SEA DIR/SP/G                  HT/PER
                 (UTC) (F)     (DEG/KT/KT) (MB)    (MI)  (FT/S)
BOSTON BUOY      1150   49 48   60/  8/ 10 1015.0R         1/ 8
BUZZARDS BAY     1100           50/ 13/ 14 1014.7R
NANTUCKET SOUND  1150      52                N/A           1
MASS BAY-STELLWA NOT AVBL
ISLE OF SHOALS   1100   48      50/ 12/ 13 1015.0R
S OF BLOCK IS    1156      49                N/A           2/ 8
$$

......................KEY.........................
  SKY/WX - SKY CONDITION/PRESENT WEATHER
  TMP    - TEMPERATURE IN FAHRENHEIT
  DWPT   - DEWPOINT IN FAHRENHEIT
  RH     - RELATIVE HUMIDITY IN PERCENT
  WIND   - DIRECTION AND SPEED IN MPH
  PRES   - MEAN SEA LEVEL PRESSURE IN INCHES OF HG
  WCI    - WIND CHILL INDEX
  VSB    - VISIBILITY IN MILES
  HX     - HEAT INDEX
  TC     - TEMPERATURE IN CELSIUS
  VRB    - VARIABLE WIND DIRECTION
  N/A    - NOT AVAILABLE
  
      

Other recent Regional Weather Roundups

Wed May 12, 4:04am

Wed May 12, 3:04am

Wed May 12, 2:04am

Wed May 12, 1:04am

Wed May 12, 12:05am

Tue May 11, 11:05pm

Tue May 11, 10:04pm

Tue May 11, 9:05pm

Tue May 11, 8:05pm

Tue May 11, 7:04pm

Tue May 11, 6:04pm

Tue May 11, 5:04pm

Tue May 11, 4:05pm

Tue May 11, 3:04pm

Tue May 11, 2:05pm

Tue May 11, 1:04pm

Tue May 11, 12:05pm

Tue May 11, 11:05am

Tue May 11, 10:04am

Tue May 11, 9:04am

Tue May 11, 8:04am

Tue May 11, 7:05am

Tue May 11, 6:04am

Tue May 11, 5:04am

Tue May 11, 4:04am

Tue May 11, 3:04am

Tue May 11, 2:04am

Tue May 11, 1:04am

Tue May 11, 12:04am

Mon May 10, 11:04pm

Mon May 10, 10:04pm

Mon May 10, 9:05pm

Mon May 10, 8:04pm

Mon May 10, 7:05pm

Mon May 10, 6:04pm

Mon May 10, 5:04pm

Mon May 10, 4:04pm

Mon May 10, 3:04pm

Mon May 10, 2:04pm

Mon May 10, 1:04pm

Mon May 10, 12:04pm

Mon May 10, 11:05am

Mon May 10, 10:04am

Mon May 10, 9:04am

Mon May 10, 8:04am

Mon May 10, 7:04am

Mon May 10, 6:04am

Mon May 10, 5:05am

Mon May 10, 4:04am

Mon May 10, 3:04am

Mon May 10, 2:04am

Mon May 10, 1:04am

Mon May 10, 12:04am

Sun May 9, 11:04pm

Sun May 9, 10:04pm

Sun May 9, 9:04pm

Sun May 9, 8:04pm

Sun May 9, 7:05pm

Sun May 9, 6:04pm

Sun May 9, 5:04pm

Sun May 9, 4:04pm

Sun May 9, 3:04pm

Sun May 9, 2:04pm

Sun May 9, 1:05pm

Sun May 9, 12:04pm

Sun May 9, 11:05am

Sun May 9, 10:04am

Sun May 9, 9:04am

Sun May 9, 8:04am

Sun May 9, 7:04am

Sun May 9, 6:04am

Sun May 9, 5:04am

Sun May 9, 4:04am

Sun May 9, 3:04am

Sun May 9, 2:04am

Sun May 9, 1:05am

Sun May 9, 12:04am

Sat May 8, 11:05pm

Sat May 8, 10:04pm

Sat May 8, 9:05pm

Sat May 8, 8:04pm

Sat May 8, 7:04pm

Sat May 8, 6:04pm

Sat May 8, 5:05pm

Sat May 8, 4:04pm

Sat May 8, 3:05pm

Sat May 8, 2:05pm

Sat May 8, 1:05pm

Sat May 8, 12:04pm

Sat May 8, 11:05am

Sat May 8, 10:04am

Sat May 8, 9:04am

Sat May 8, 8:04am

Sat May 8, 7:04am

Sat May 8, 6:04am

Sat May 8, 5:04am

Sat May 8, 4:04am

Sat May 8, 3:04am

Sat May 8, 2:04am

Sat May 8, 1:05am

Sat May 8, 12:04am

Fri May 7, 11:04pm

Fri May 7, 10:05pm

Fri May 7, 9:04pm

Fri May 7, 8:04pm

Fri May 7, 7:05pm

Fri May 7, 6:04pm

Fri May 7, 5:05pm

Fri May 7, 4:04pm

Fri May 7, 3:04pm

Fri May 7, 2:05pm

Fri May 7, 1:04pm

Fri May 7, 12:04pm

Fri May 7, 11:05am

Fri May 7, 10:04am

Fri May 7, 9:04am

Fri May 7, 7:04am

Fri May 7, 6:04am

Fri May 7, 5:04am

Fri May 7, 4:04am

Fri May 7, 3:04am

Fri May 7, 2:05am

Fri May 7, 1:04am

Fri May 7, 12:05am

Thu May 6, 11:04pm

Thu May 6, 10:04pm

Thu May 6, 9:05pm

Thu May 6, 8:04pm

Thu May 6, 7:04pm

Thu May 6, 6:04pm

Thu May 6, 5:05pm

Thu May 6, 4:04pm

Thu May 6, 3:04pm

Thu May 6, 2:05pm

Thu May 6, 1:04pm

Thu May 6, 12:04pm

Thu May 6, 11:04am

Thu May 6, 10:04am

Thu May 6, 9:04am

Thu May 6, 8:04am

Thu May 6, 7:04am

Thu May 6, 6:04am

Thu May 6, 5:04am

Thu May 6, 4:04am

Thu May 6, 3:04am

Thu May 6, 2:05am

Thu May 6, 1:04am

Thu May 6, 12:05am

Wed May 5, 11:04pm

Wed May 5, 10:04pm

Wed May 5, 9:05pm

Wed May 5, 8:04pm

Wed May 5, 7:05pm

Wed May 5, 6:04pm

Wed May 5, 5:04pm

Wed May 5, 4:04pm

Wed May 5, 3:04pm

Wed May 5, 2:05pm

Wed May 5, 1:05pm

Wed May 5, 12:04pm

Wed May 5, 11:05am

Wed May 5, 10:04am

Wed May 5, 9:04am

Wed May 5, 8:04am

Wed May 5, 7:04am

Wed May 5, 6:05am

Wed May 5, 5:04am

Meta data:

ID: 4aba80f7-6182-4ec0-8b1c-aaa889741e53
Link: https://api.weather.gov/products/4aba80f7-6182-4ec0-8b1c-aaa889741e53